FENGYUN 1C DEB

Satellite information

Favourite Embed

Satellite Type and Status

DEBRISIN ORBIT

Key statistics

Satellite FENGYUN 1C DEB at a glance.

Uptime

9495

Days in orbit

Revolutions

≈ 14.3

Per day

Orbit

SSO

Sun Synchronous Orbit

Inclination

98.8

Latest

Satellite identification and parameters

Extended collection of information and parameters for FENGYUN 1C DEB.

Object identification

Identified? True

Debris? True

Object name: FENGYUN 1C DEB

International designator: 1999-025BCK

Object number (NORAD): 30993

Object ID (CCSDS): 30993

Country: PEOPLES REPUBLIC OF CHINA (PRC)

Current information (Y/N): Y

RCS size: SMALL

Orbital parameters

Period: 100.499 minutes

Inclination: 98.8473 deg

SMA: 7160.353 km

Apoapsis: 793.653 km

Periapsis: 770.784 km

RAAN: 215.2034 deg

Eccentricy: 0.0015969

Argument of periapsis: 290.7464 deg

Mean anomaly: 191.5902 deg

Mean motion: 14.32851125 rev/day

Mean motion (dot): 0.00004386 rev/day2

B* drag term: 0.0016212 1/REarth

Two-line elements (TLE)

Creation date: May 8, 2025, 3:01 a.m.

Reference frame: TEME

Reference center: EARTH

Epoch: May 7, 2025, 6:05 p.m. UTC

TLE line 0: 0 FENGYUN 1C DEB

TLE line 1: 1 30993U 99025BCK 25127.75356003 .00004386 00000-0 16212-2 0 9990

TLE line 2: 2 30993 98.8473 215.2034 0015969 290.7464 191.5902 14.32851125937811

Live tracking on map

Real-time ground track for satellite FENGYUN 1C DEB.

In-orbit conjunctions

A list of the most updated potential collisions computed for object FENGYUN 1C DEB.

Target Orbit TCA Probability of collision Miss distance Type
CZ-6A DEB LEO 2025-02-12 19:18:03 0.000103131 384.0 (m) DEBRIS
CZ-6A DEB LEO 2025-01-14 16:15:20 0.0003489352 133.0 (m) DEBRIS

Associated space launch

Chinese polar orbiting meteorological satellite

FENGYUN 1C DEB was lifted into orbit during the mission ‘Long March 4B | Feng Yun 1C’, on board a Long March 4B space rocket.

The launch took place on May 10, 1999, 1:33 a.m. from Launch Complex 7.

For more information about the launch, click the button.

Launch to space Long March 4B | Feng Yun 1C
Long March 4B | Feng Yun 1C

Agency: N/A

Status: Launch Successful

Launch date: May 10, 1999, 1:33 a.m. UTC

Rocket: Long March 4B

Launch pad: Launch Complex 7

Location: Taiyuan Satellite Launch Center, People's Republic of China

...

Latest news about this satellite

There are no fresh news available about this satellite. Check back as we update our databases every day.


Newsletter sign-up

Weekly statistics, charts and insights to help you stay on top of the space industry.